Location: Grand Canyon Star Party (South Rim)
(36.0641°N, 112.1172°W)
Time: 19:11:20
(UTC-07:00)

Hubble Space Telescope - Visible Passes

Search period start: 18 July 2018 00:00
Search period end: 28 July 2018 00:00
Orbit: 537 x 541 km, 28.5° (Epoch: 18 July)

Date Brightness Start Highest point End Pass type
(mag) Time Alt. Az. Time Alt. Az. Time Alt. Az.
18 Jul 1.9 04:07:10 22° SSW 04:08:34 27° S 04:12:05 10° ESE visible
19 Jul 1.8 03:57:23 26° SSW 03:58:09 28° S 04:01:41 10° ESE visible
20 Jul 1.8 03:47:41 28° S 03:47:43 28° S 03:51:16 10° ESE visible
21 Jul 2.0 03:38:06 25° SSE 03:38:06 25° SSE 03:40:49 10° SE visible
22 Jul 2.5 03:28:39 19° SSE 03:28:39 19° SSE 03:30:20 10° SE visible
23 Jul 3.2 03:19:23 12° SE 03:19:23 12° SE 03:19:48 10° SE visible
23 Jul 2.8 04:55:28 10° SW 04:57:03 12° SSW 04:58:36 10° S visible
27 Jul 3.2 21:19:33 10° SSW 21:19:38 10° SSW 21:19:38 10° SSW visible
